Location: Unspecified
(0.0000°N, 0.0000°E)
Time: 17:59:46
(UTC+00:00)

STARLINK 1055 - Pass Details

Date: 18 January 2020
Orbit: 548 x 551 km, 53.0° (Epoch: 17 January)

Event Time Altitude Azimuth Distance (km) Brightness Sun altitude
Rises 18:34:24 0° 312° (NW) 2,701 7.5 -5.6°
Reaches altitude 10° 18:36:44 10° 303° (WNW) 1,811 6.8 -6.2°
Maximum altitude 18:40:32 36° 236° (SW) 872 5.5 -7.1°
Drops below altitude 10° 18:44:22 10° 168° (SSE) 1,819 6.4 -8.0°
Sets 18:46:43 0° 160° (SSE) 2,714 7.2 -8.5°
